Avalon, CA

5:55 AM PST on December 18, 2017 (GMT -0800)
Catalina

Weather History for KAVX - December, 2012

Change the Weather History Date:

Saturday, December 8, 2012

  Actual Average Record
Temperature  
Mean Temperature 57 °F -  
Max Temperature 66 °F 58 °F 78 °F (2015)
Min Temperature 48 °F 48 °F 39 °F (2007)
Degree Days  
Heating Degree Days 8    
Growing Degree Days 7 (Base 50)    
Moisture  
Dew Point 47 °F    
Average Humidity 73    
Maximum Humidity 100    
Minimum Humidity 36    
Precipitation  
Precipitation 0.00 in - - ()
Sea Level Pressure  
Sea Level Pressure 29.93 in    
Wind  
Wind Speed 3 mph (WNW)    
Max Wind Speed 7 mph    
Max Gust Speed -    
Visibility 7 miles    
Events Fog    
Averages and records for this station are not official NWS values.
T = Trace of Precipitation, MM = Missing Value Source: NWS Daily Summary

Daily Weather History Graph

Daily Weather History Graph

Search for Another Location

Airport or City:

Trip Planner

Search our weather history database for the weather conditions in past years. The results will help you decide how hot, cold, wet, or windy it might be!

Date:

Astronomy

Dec. 08, 2012 Rise Set
Actual Time 6:45 AM PST 4:46 PM PST
Civil Twilight 6:18 AM PST 5:13 PM PST
Nautical Twilight 5:47 AM PST 5:44 PM PST
Astronomical Twilight 5:17 AM PST 6:14 PM PST
Moon 1:28 AM PST (12/8) 1:07 PM PST (12/8)
Length of Visible Light 10h 55m
Length of Day
10h 00m
Waning Crescent, 27% of the Moon is Illuminated
Dec 8
Waning Crescent
Dec 13
New
Dec 19
First Quarter
Dec 28
Full
Jan 4
Last Quarter

Hourly Weather History & Observations

Time (PST) Temp. Dew Point Humidity Pressure Visibility Wind Dir Wind Speed Gust Speed Precip Events Conditions
12:51 AM 66.0 °F 37.9 °F 36% 29.91 in 10.0 mi Calm Calm - N/A   Clear
1:51 AM 63.0 °F 41.0 °F 45% 29.91 in 10.0 mi Calm Calm - N/A   Clear
2:51 AM 63.0 °F 36.0 °F 37% 29.90 in 10.0 mi Calm Calm - N/A   Clear
3:51 AM 61.0 °F 37.0 °F 41% 29.89 in 10.0 mi NNW 4.6 mph - N/A   Clear
4:51 AM 59.0 °F 39.9 °F 49% 29.90 in 10.0 mi WNW 5.8 mph - N/A   Clear
5:51 AM 57.0 °F 41.0 °F 55% 29.91 in 10.0 mi WNW 4.6 mph - N/A   Clear
6:51 AM 59.0 °F 39.9 °F 49% 29.93 in 10.0 mi NW 3.5 mph - N/A   Clear
7:51 AM 59.0 °F 39.9 °F 49% 29.94 in 10.0 mi WSW 5.8 mph - N/A   Clear
8:51 AM 60.1 °F 48.9 °F 67% 29.95 in 10.0 mi Calm Calm - N/A   Clear
9:51 AM 62.1 °F 51.1 °F 67% 29.96 in 10.0 mi SE 3.5 mph - N/A   Clear
10:51 AM 62.1 °F 52.0 °F 70% 29.95 in 10.0 mi West 4.6 mph - N/A   Clear
11:51 AM 63.0 °F 45.0 °F 52% 29.92 in 10.0 mi West 4.6 mph - N/A   Clear
12:51 PM 63.0 °F 52.0 °F 67% 29.91 in 10.0 mi West 6.9 mph - N/A   Clear
1:51 PM 62.1 °F 51.1 °F 67% 29.90 in 10.0 mi WSW 5.8 mph - N/A   Clear
2:51 PM 60.1 °F 54.0 °F 80% 29.89 in 10.0 mi WSW 6.9 mph - N/A   Clear
3:26 PM 57.2 °F 53.6 °F 88% 29.93 in 2.5 mi WSW 6.9 mph - N/A   Partly Cloudy
3:40 PM 55.4 °F 53.6 °F 94% 29.93 in 6.0 mi WSW 4.6 mph - N/A   Partly Cloudy
3:51 PM 55.9 °F 54.0 °F 93% 29.90 in 7.0 mi SSW 3.5 mph - N/A   Clear
4:38 PM 55.4 °F 51.8 °F 88% 29.93 in 0.8 mi NNW 4.6 mph - N/A   Mist
4:51 PM 55.0 °F 46.0 °F 72% 29.91 in 6.0 mi NNW 5.8 mph - N/A   Haze
5:51 PM 53.1 °F 48.0 °F 83% 29.93 in 0.5 mi NNE 6.9 mph - N/A   Haze
6:25 PM 48.2 °F 42.8 °F 82% 29.95 in 1.5 mi NNE 4.6 mph - N/A   Haze
6:32 PM 50.0 °F 41.0 °F 71% 29.95 in 10.0 mi North 5.8 mph - N/A   Partly Cloudy
6:51 PM 53.1 °F 50.0 °F 89% 29.93 in 10.0 mi NNE 5.8 mph - N/A   Clear
7:51 PM 53.1 °F 46.9 °F 80% 29.94 in 10.0 mi East 3.5 mph - N/A   Clear
8:51 PM 54.0 °F 51.1 °F 90% 29.94 in 4.0 mi SE 5.8 mph - N/A   Clear
9:51 PM 52.0 °F 50.0 °F 93% 29.95 in 3.0 mi Calm Calm - N/A   Clear
9:59 PM 51.8 °F 50.0 °F 94% 29.97 in 1.8 mi SE 3.5 mph - N/A   Clear
10:12 PM 51.8 °F 50.0 °F 94% 29.97 in 3.0 mi SE 3.5 mph - N/A   Clear
10:24 PM 51.8 °F 50.0 °F 94% 29.97 in 1.2 mi ESE 4.6 mph - N/A   Partly Cloudy
10:31 PM 51.8 °F 50.0 °F 94% 29.97 in 0.2 mi ESE 4.6 mph - N/A Fog Fog
11:51 PM 51.1 °F 51.1 °F 100% 29.96 in 0.2 mi East 4.6 mph - N/A Fog Fog